Flag for USA

Past Weather in 44°02'44.8"N, 88°32'15.7"W, USA — Yesterday and Last 2 Weeks

Currently: 62 °F. Sunny. (Weather station: Wittman Regional Airport, USA). See more current weather

Past Weather in 44°02'44.8"N, 88°32'15.7"W — Graph

°F

44°02'44.8"N, 88°32'15.7"W Temperature Yesterday

Maximum temperature yesterday: 68 °F (at 3:53 pm)
Minimum temperature yesterday: 41 °F (at 3:59 am)
Average temperature yesterday: 52 °F

High & Low Weather Summary for the Past Weeks

 TemperatureHumidityPressure
High78 °F (Sep 19, 3:53 pm)100% (Oct 1, 3:59 am)30.54 "Hg (Oct 1, 3:59 am)
Low36 °F (Sep 28, 6:53 am)44% (Sep 22, 4:53 pm)29.67 "Hg (Sep 21, 3:53 am)
Average56 °F77%30.08 "Hg
* Reported Sep 17 4:53 pm — Oct 2 4:53 pm, 44°02'44.8"N, 88°32'15.7"W. Weather by CustomWeather, © 2022

Note: Actual official high and low records may vary slightly from our data, if they occured in-between our weather recording intervals... More about our weather records

44°02'44.8"N, 88°32'15.7"W Weather History for the Previous 24 Hours

Scroll right to see more
 ConditionsComfort  
Time TempWeatherWind HumidityBarometerVisibility
4:53 pm
Sun, Oct 2
63 °FSunny.7 mph60%30.37 "Hg10 mi
3:53 pm64 °FSunny.No wind61%30.38 "Hg10 mi
2:53 pm63 °FSunny.7 mph65%30.39 "Hg10 mi
2:02 pm61 °FScattered clouds.6 mph67%30.41 "Hg10 mi
12:53 pm59 °FOvercast.8 mph72%30.43 "Hg10 mi
11:53 am58 °FOvercast.8 mph72%30.44 "Hg10 mi
10:53 am57 °FOvercast.8 mph81%30.44 "Hg10 mi
9:53 am57 °FOvercast.9 mph78%30.43 "Hg10 mi
9:05 am56 °FOvercast.7 mph81%30.42 "Hg10 mi
8:53 am56 °FOvercast.9 mph81%30.41 "Hg10 mi
7:53 am56 °FOvercast.7 mph87%30.40 "Hg10 mi
6:53 am55 °FOvercast.7 mph87%30.37 "Hg10 mi
6:24 am55 °FPassing clouds.6 mph87%30.38 "Hg10 mi
5:53 am55 °FPassing clouds.7 mph87%30.35 "Hg10 mi
4:53 am56 °FClear.8 mph84%30.33 "Hg10 mi
3:53 am56 °FClear.8 mph87%30.32 "Hg10 mi
2:53 am56 °FClear.9 mph87%30.31 "Hg10 mi
1:53 am57 °FClear.10 mph83%30.30 "Hg10 mi
12:53 am58 °FPassing clouds.10 mph75%30.30 "Hg10 mi
11:53 pm
Sat, Oct 1
59 °FClear.9 mph69%30.30 "Hg10 mi
10:53 pm57 °FClear.5 mph74%30.30 "Hg10 mi
9:53 pm56 °FClear.6 mph77%30.30 "Hg10 mi
8:53 pm60 °FClear.6 mph69%30.29 "Hg10 mi
7:53 pm60 °FClear.6 mph78%30.28 "Hg10 mi
Weather by CustomWeather, © 2022

See weather overview